User: anonymous   Login
Location: Theydon Bois
(51.6750°N, 0.1050°E)
Time: 10:57:01
(UTC+01:00)
Language:

ERS-1 Rocket - Orbit

View from above orbital plane
View from above orbital plane
View from above satellite
View from above satellite

Ground track
Ground track

The orbit data is extracted from the following two-line orbital elements,

1 21610U 91050F   18172.20676769 -.00000003  00000-0  13019-4 0  9999
2 21610  98.5548 234.9718 0001949 283.0081 144.1859 14.40840960413253
Epoch (UTC): 21 June 2018 04:57:44
Eccentricity: 0.0001949
inclination: 98.5548°
perigee height: 754 km
apogee height: 757 km
right ascension of ascending node: 234.9718°
argument of perigee: 283.0081°
revolutions per day: 14.40840960
mean anomaly at epoch: 144.1859°
orbit number at epoch: 41325

The dashed part of the orbit path shows where the satellite is in the earth's shadow,  

DLR